Probability
1 0 0 1 3 5 7 7 7 7 6 5 4 4 4 2 1 0 0 0 0 0 0 0 1 2 3 3 3 3 2 2 2 2 1 1 1 2 3 3 3 4 5
2 1 1 1 3 5 7 8 9 8 6 6 6 5 4 3 1 1 0 0 0 0 0 0 1 2 3 3 3 3 3 3 3 4 4 3 3 4 5 6 6 6 5
3 3 4 3 4 6 7 10 12 12 10 8 8 7 6 5 4 3 2 2 1 0 0 0 1 3 3 3 4 4 4 4 6 7 8 7 6 7 8 8 8 8 8
4 6 7 6 4 5 6 9 15 18 15 12 11 10 8 7 7 6 4 3 3 2 2 3 4 4 4 4 6 7 7 8 9 11 11 10 9 10 10 9 8 8 9
6 7 9 7 6 5 5 9 16 20 19 17 16 15 12 9 8 8 6 5 5 4 5 8 9 8 7 7 7 7 9 11 14 14 12 11 10 10 10 9 8 7 7
8 10 10 9 8 7 6 8 14 17 18 18 19 19 17 12 10 11 11 10 9 7 8 10 11 11 11 9 8 7 8 11 15 15 13 11 10 10 10 9 7 5 4
11 11 12 10 9 8 7 8 11 13 14 16 19 21 20 16 13 13 14 15 13 11 9 9 11 13 12 10 10 9 9 10 12 13 13 13 11 10 9 9 6 5 4
12 11 12 11 8 6 6 8 10 11 13 15 19 21 20 16 14 14 15 16 15 13 12 11 12 14 12 12 14 15 13 11 11 12 14 15 13 11 10 9 8 7 6
12 11 12 11 8 6 6 9 12 14 16 17 19 22 21 17 15 16 17 17 16 15 15 14 13 13 13 15 18 18 16 14 13 14 17 17 15 13 12 11 11 9 8
12 12 11 10 8 6 7 11 14 17 18 18 18 20 20 17 16 18 19 19 18 17 16 14 13 14 14 16 18 17 16 15 15 17 18 18 17 15 14 13 12 11 11
12 11 10 9 7 5 7 11 15 18 18 17 17 18 18 17 17 18 19 21 21 20 17 15 15 16 16 17 17 15 15 15 16 18 18 18 17 17 15 12 11 12 15
11 10 10 11 11 9 10 13 16 18 18 17 17 17 17 17 17 17 18 20 24 23 21 20 20 19 19 19 19 17 16 16 17 18 19 18 18 17 15 12 10 13 16
14 15 16 18 18 16 15 15 16 17 18 19 18 17 17 17 18 18 17 19 22 23 22 22 22 22 21 21 20 18 17 16 17 18 18 17 16 16 15 14 13 14 14
20 22 24 23 22 21 17 15 15 17 19 20 18 18 17 17 18 19 18 18 19 20 21 22 23 23 22 21 19 17 16 15 15 16 15 14 13 13 13 14 14 14 13
23 24 23 22 22 21 18 16 16 18 20 20 18 18 18 18 20 20 19 19 18 18 20 23 24 23 20 16 14 14 13 13 13 14 14 13 11 10 10 11 11 11 12
20 20 19 19 20 21 20 18 18 20 21 19 19 20 20 21 22 20 19 21 20 18 20 23 23 21 16 11 8 8 11 13 15 17 16 14 12 11 9 7 6 6 8
17 17 17 18 19 19 19 19 19 20 21 21 21 21 21 21 20 19 19 20 19 18 19 20 20 19 14 8 5 5 9 17 20 20 19 17 14 14 14 10 8 7 8
14 14 14 16 17 16 16 18 20 22 24 23 23 22 21 19 18 17 17 17 16 16 17 17 17 17 14 9 4 4 11 19 22 22 21 20 18 18 19 18 16 15 15
13 11 11 13 15 15 15 16 18 21 24 23 22 21 20 18 17 16 16 16 15 15 16 16 17 17 14 9 4 6 13 19 21 22 22 20 18 17 17 19 20 21 21
12 10 10 11 14 15 16 16 16 18 20 20 18 18 19 19 18 17 17 16 16 16 16 16 17 17 14 9 5 7 13 18 19 20 19 15 12 10 11 14 18 20 21
12 11 11 11 13 16 18 19 17 16 17 17 17 17 18 19 18 18 18 17 16 16 16 15 16 15 13 9 5 6 10 14 16 17 15 11 7 4 5 7 12 15 16
12 13 13 12 13 18 22 22 21 19 18 19 19 18 19 17 16 17 18 16 15 14 14 13 13 13 12 10 6 4 5 9 12 14 13 10 6 3 2 4 6 7 7
13 13 14 14 16 19 22 24 24 22 23 22 20 18 17 15 13 14 16 14 13 12 12 12 12 12 13 12 9 5 3 4 7 10 11 8 5 3 3 3 3 4 4
15 14 14 16 18 19 20 22 22 22 23 22 19 15 14 13 12 12 13 12 12 11 12 12 12 12 13 13 11 8 5 4 6 9 9 7 5 5 6 5 5 6 7
16 15 13 14 17 18 18 17 17 18 19 18 16 13 12 11 11 10 10 9 10 10 10 9 9 10 9 8 8 8 7 6 7 9 9 8 8 8 8 8 8 10 11
15 13 11 12 15 17 16 14 14 15 16 15 13 12 11 11 9 8 8 7 7 7 6 5 5 6 5 4 4 5 6 6 7 8 9 9 10 10 10 10 10 12 14
Wind_Speed
4 5 5 6 5 5 5 5 5 5 4 3 3 3 3 2 2 2 2 2 2 2 2 2 1 2 2 2 3 3 2 2 2 3 3 2 3 2 3 3 2 3 3
5 5 6 6 6 6 6 6 6 5 5 4 3 2 2 2 2 1 2 2 2 2 2 2 2 2 2 2 2 2 3 2 1 3 3 2 3 3 2 2 3 2 3
5 6 6 6 6 6 6 5 5 5 5 5 4 3 3 3 3 3 2 2 2 2 2 2 3 2 3 1 2 3 3 3 2 2 3 3 2 3 2 3 2 2 3
5 6 6 6 5 5 5 5 5 5 5 5 4 4 3 2 1 2 2 2 2 2 3 3 3 3 3 2 3 1 3 4 3 2 2 3 4 4 2 2 2 3 3
5 5 6 5 5 5 5 5 5 5 5 5 5 4 3 2 1 2 2 2 2 3 3 3 3 3 3 2 3 2 4 3 4 3 3 3 3 5 5 4 3 3 3
6 5 5 5 5 5 4 4 5 4 5 5 5 5 4 3 2 2 2 3 2 2 3 3 3 3 3 3 3 3 3 3 4 4 4 4 4 4 4 5 5 4 3
7 6 6 5 5 4 4 4 4 4 4 5 4 4 4 5 5 4 3 3 3 2 2 3 3 3 3 3 3 3 4 4 4 4 4 4 4 4 5 5 6 6 4
6 6 6 6 5 5 4 4 4 4 4 5 4 4 4 4 3 3 4 3 3 2 2 3 3 3 3 3 3 3 4 3 4 5 4 5 4 4 4 5 5 6 5
6 6 6 6 5 5 5 5 5 4 5 5 5 5 5 4 3 3 4 4 3 3 3 3 3 3 4 4 4 3 4 4 5 5 4 4 3 4 4 4 4 6 7
6 6 5 5 5 5 5 5 5 5 5 5 5 3 4 4 4 4 4 4 4 3 4 4 4 4 4 4 4 4 3 4 4 4 4 4 4 3 4 4 4 5 6
5 5 5 5 5 5 5 5 5 5 5 5 4 4 3 3 4 4 4 4 3 3 4 4 4 5 5 5 4 5 4 5 5 5 4 5 5 4 4 4 4 4 5
4 4 4 4 3 4 4 4 4 5 5 4 4 4 4 3 4 3 3 3 4 4 4 4 5 5 5 5 5 6 5 5 5 5 5 5 4 4 5 4 5 4 5
2 3 3 3 3 3 3 3 3 3 3 3 4 3 3 3 3 3 3 3 3 3 3 4 4 5 5 5 5 5 6 6 5 5 5 5 4 5 4 5 5 5 5
3 3 3 2 2 2 2 2 2 2 2 1 2 2 2 3 3 3 3 3 3 3 3 3 4 4 4 5 5 5 5 5 5 5 5 5 5 5 5 5 5 6 6
2 2 2 1 1 1 2 2 2 2 2 2 1 1 2 2 3 3 3 2 3 3 3 3 3 3 3 4 4 5 6 5 6 5 5 5 4 4 5 5 5 6 6
1 1 1 1 1 1 1 1 1 1 1 2 2 1 2 2 2 3 2 2 2 3 3 3 3 3 3 2 3 5 6 5 6 6 6 6 5 5 6 7 7 8 7
1 0 1 0 0 0 1 1 1 1 1 1 1 1 2 2 2 3 2 2 2 2 2 3 3 3 2 2 3 4 6 6 5 6 5 6 4 4 5 6 8 8 9
1 1 1 1 0 0 0 0 1 1 1 1 1 2 2 2 2 2 2 2 2 2 2 3 3 3 2 2 3 5 7 6 5 5 5 6 5 4 6 7 7 7 7
1 1 1 1 0 1 0 1 1 1 1 2 2 2 2 2 2 3 2 2 2 2 3 3 3 3 2 2 3 5 6 5 5 5 5 6 6 3 5 7 8 8 7
1 1 1 1 1 1 1 2 1 1 2 2 2 2 2 3 3 3 3 2 2 3 3 2 3 3 3 1 2 5 5 5 5 4 4 4 4 4 4 7 8 8 8
1 1 1 1 1 1 1 2 1 2 2 2 2 2 2 3 3 2 2 2 3 2 3 3 3 3 3 1 1 3 5 5 5 5 4 2 1 3 5 7 7 7 8
2 2 2 2 2 1 1 1 2 2 2 2 2 2 2 3 2 2 2 2 3 3 3 3 4 3 2 2 1 3 5 7 6 6 5 3 2 4 6 6 6 7 7
2 2 1 2 2 2 1 1 2 2 2 2 2 2 2 2 2 2 2 3 3 3 2 3 3 3 2 1 3 5 6 7 6 5 4 5 5 6 6 6 7 7 5
1 2 2 2 2 2 2 2 2 2 2 2 2 2 3 2 2 2 2 2 2 2 3 3 3 3 3 3 3 3 3 5 5 5 4 6 8 8 6 5 5 5 4
1 1 2 2 2 2 2 2 2 2 3 3 2 3 2 1 2 2 2 3 2 2 3 4 4 4 4 4 6 6 5 5 4 5 5 4 4 4 4 4 4 4 3
2 2 2 2 2 2 2 2 2 3 3 3 3 3 2 2 2 2 1 1 2 2 3 3 5 3 3 5 5 6 6 6 6 6 5 4 4 5 5 5 4 4 4
Wind_Direction
172 174 174 170 167 170 173 174 176 169 179 180 186 178 173 178 186 194 179 210 223 219 240 264 221 257 262 279 284 286 267 279 306 285 277 247 226 239 237 239 248 234 240
170 175 177 179 177 175 178 179 184 180 189 179 189 195 187 188 183 191 173 208 214 233 225 236 254 252 256 256 284 293 302 306 288 298 298 283 206 215 214 223 226 251 257
170 164 171 180 178 179 183 182 182 186 194 190 192 183 187 204 187 189 184 195 218 232 260 249 266 269 266 264 273 279 280 290 283 288 299 305 325 313 200 228 232 247 269
167 162 164 169 173 176 176 180 179 190 192 196 202 204 211 211 191 202 175 196 215 243 245 247 254 268 277 277 269 294 287 278 279 252 261 291 314 296 296 234 212 229 251
165 161 159 160 164 166 171 173 177 187 191 198 197 210 221 220 207 212 181 228 217 237 249 243 248 256 266 279 292 287 282 275 282 287 283 277 260 261 282 291 295 271 262
166 167 159 158 159 157 163 164 169 186 195 202 204 212 224 234 239 235 224 231 223 223 234 239 245 253 267 267 265 270 265 279 287 287 286 281 280 278 277 283 284 288 286
167 169 167 163 162 159 164 168 174 190 202 208 211 214 223 227 230 242 234 249 249 230 221 245 245 252 252 259 266 260 273 270 269 269 276 279 278 286 283 284 290 291 281
165 170 172 172 174 170 176 184 191 203 207 210 213 217 222 235 238 240 263 256 262 263 251 244 250 256 257 261 260 265 263 261 262 269 277 278 278 282 276 280 290 290 283
168 172 174 176 181 184 188 195 196 204 212 216 218 215 217 234 247 247 250 259 260 256 249 252 252 255 257 257 256 264 268 267 266 270 261 267 276 270 275 274 275 283 290
171 175 177 180 186 192 193 197 198 203 216 221 224 216 218 221 231 249 254 260 261 264 259 256 257 256 254 253 256 259 259 268 268 271 281 279 278 277 268 267 269 270 280
178 174 175 183 191 196 196 197 204 207 215 225 226 228 223 220 225 235 247 250 252 252 253 255 257 255 252 251 251 259 258 262 271 273 268 269 283 283 279 269 266 265 267
183 176 177 182 193 203 209 205 213 216 218 220 223 225 232 240 240 242 252 248 247 249 251 256 256 257 255 253 253 257 259 260 264 271 273 273 271 272 276 280 272 269 268
197 189 183 182 187 201 207 212 213 216 218 212 216 221 230 242 253 252 250 249 248 251 255 260 261 264 266 261 257 260 264 265 266 268 270 275 282 280 283 281 280 275 265
188 189 186 189 190 196 195 203 208 205 197 201 220 220 235 243 247 251 251 253 257 259 261 260 264 265 268 267 262 259 260 262 264 264 267 272 275 277 280 275 277 280 278
180 181 187 194 197 186 186 191 200 191 187 192 212 238 256 247 246 245 248 249 261 270 275 270 264 263 262 274 281 274 260 258 261 262 263 263 268 290 285 290 288 283 276
170 173 177 179 187 187 185 175 188 187 179 204 223 232 256 247 245 246 252 257 264 272 272 275 280 281 290 353 332 299 284 271 264 266 267 264 245 247 245 258 270 276 277
103 141 151 171 227 231 209 189 177 180 175 219 244 247 263 265 258 260 261 264 266 267 267 279 282 288 319 335 315 302 287 275 271 270 271 273 274 265 275 258 246 249 246
7 355 350 5 339 32 59 252 201 195 194 215 250 259 264 258 258 261 264 269 275 273 274 277 281 281 299 319 301 299 272 275 274 273 273 276 283 285 290 284 277 274 264
351 336 301 294 41 19 293 224 230 218 228 245 253 260 267 268 260 257 264 273 271 270 264 267 272 276 283 309 303 292 278 272 271 271 272 275 280 295 294 279 277 278 277
7 350 334 10 47 357 279 250 239 236 254 266 272 273 269 268 265 268 271 274 268 265 267 268 278 282 290 299 294 288 282 287 284 272 261 241 265 280 271 273 278 279 283
30 25 32 15 352 321 276 272 275 262 271 280 286 286 282 273 265 265 263 264 266 269 274 280 278 279 292 260 243 272 285 293 289 289 286 293 212 260 263 269 278 285 292
25 28 28 8 346 327 265 273 283 293 295 290 281 279 282 284 277 259 261 255 255 250 257 272 279 276 273 301 272 245 261 290 289 289 296 317 303 277 266 262 276 280 278
12 1 356 349 348 339 336 299 315 310 296 281 282 288 283 272 265 253 246 243 249 268 281 280 282 288 297 246 218 236 250 261 274 293 312 296 268 260 252 243 249 254 263
0 344 344 341 350 348 335 312 299 285 277 278 286 280 269 266 270 267 262 270 274 285 290 289 293 295 289 305 310 292 268 254 260 283 280 253 245 250 263 254 243 255 274
345 334 323 323 329 328 318 310 305 285 273 272 272 273 273 285 261 266 302 287 317 327 294 301 303 307 308 339 331 306 302 306 311 298 272 273 280 282 287 287 282 275 264
330 325 324 327 326 321 319 319 306 290 276 269 272 273 274 273 267 263 265 354 258 217 237 272 290 306 316 317 314 305 301 295 288 279 279 293 299 302 302 296 292 286 281